Regional Weather Roundup
Issued by NWS Northern Indiana

Home | Current Version | Previous Version | Text Only | Print | Product List | Glossary Off
Versions: 1 2 3 4 5 6 7 8 9 10 11 12 13 14 15 16 17 18 19 20 21 22 23 24 25 26 27 28 29 30 31 32 33 34 35 36 37 38 39 40 41 42 43 44 45 46 47 48 49 50

000
ASUS43 KIWX 081900
RWRIWX

KIWX WEATHER ROUNDUP
NATIONAL WEATHER SERVICE NORTHERN INDIANA
200 PM EST THU DEC 08 2016

NOTE: "FAIR" INDICATES FEW OR NO CLOUDS BELOW 12,000 FEET WITH NO
SIGNIFICANT WEATHER AND/OR OBSTRUCTIONS TO VISIBILITY.

* THESE STATIONS ARE NOT UNDER NWS QUALITY CONTROL. THEY ALSO MAY NOT
  REPORT WEATHER SUCH AS PRECIPITATION OR FOG.

INZ001>027-082000-
NORTHERN INDIANA

CITY           SKY/WX    TMP DP  RH WIND       PRES   REMARKS
GARY*          PTSUNNY   21  12  68 W23G39    30.30S WCI   5
SOUTH BEND     LGT SNOW  19  14  81 W17G24    30.24R WCI   4
GOSHEN         FLURRIES  21  11  65 W18       30.23R WCI   6
MONTICELLO*    FLURRIES  21   9  60 W18G29    30.31S WCI   6
ANGOLA*        CLOUDY    21  16  79 W10       30.17R WCI  10
FORT WAYNE     FLURRIES  23  14  68 W20G28    30.23R WCI   8

$$
INZ028>050-082000-
CENTRAL INDIANA

CITY           SKY/WX    TMP DP  RH WIND       PRES   REMARKS
LAFAYETTE      CLOUDY    22  13  68 W22G30    30.33R WCI   6
KOKOMO*        FLURRIES  22  14  71 W26G36    30.29R WCI   5
MUNCIE*        CLOUDY    25  13  60 W18G25    30.27R WCI  11
INDIANAPOLIS   FLURRIES  23  13  65 W22       30.33S WCI   8

$$
MIZ043>046-050>051-056>058-064>065-071>073-077>080-082000-
SOUTHWEST LOWER MICHIGAN

CITY           SKY/WX    TMP DP  RH WIND       PRES   REMARKS
BATTLE CREEK   LGT SNOW  24  19  81 W12       30.14R WCI  13
BENTON HARBOR  LGT SNOW  25  17  72 W21G29    30.22R WCI  11
COLDWATER*     LGT SNOW  23  19  87 W15       30.16R WCI  10
HILLSDALE*     LGT SNOW  21  18  86 W14G21    30.12R WCI   8
HOLLAND        FLURRIES  27  20  75 W15G25    30.16R WCI  15
GRAND RAPIDS   LGT SNOW  25  20  81 W10       30.13R WCI  15
KALAMAZOO      LGT SNOW  24  17  74 W13       30.16R WCI  12
STURGIS*       LGT SNOW  21  17  83 W15G23    30.18R WCI   8
THREE RIVERS*  FLURRIES  23  18  81 W15G22    30.19R WCI  10

$$
OHZ001>008-015>018-024>025-082000-
NORTHWEST OHIO

CITY           SKY/WX    TMP DP  RH WIND       PRES   REMARKS
DEFIANCE       FLURRIES  25  14  63 W13G21    30.21R WCI  14
FINDLAY        FLURRIES  25  14  63 W23G32    30.19R WCI  10
TOLEDO EXPRESS CLOUDY    25  17  72 W18       30.17R WCI  11
TOLEDO METCALF CLOUDY    27  17  66 W23G30    30.17S WCI  12
LIMA           CLOUDY    23  15  71 W21       30.21S WCI   8

$$
AND FOR LAKE MICHIGAN COASTAL AND OPEN LAKE BUOY OBSERVATIONS

STATION/POSITION TEMP    WIND        PRES    VSBY  WAVE
                 AIR SEA DIR/SP/G                  HT/PER
                 (F)     (DEG/KT/KT) (MB)    (MI)  (FT/S)
CALUMET HARBOR    21     250/ 10/ 24 1024.6S
BURNS HARBOR      21     250/ 23/ 26 1025.4R
SAINT JOSEPH      27     260/ 22     1024.0R

$$
&&




USA.gov is the U.S. government's official web portal to all federal, state and local government web resources and services.